Temp
12 12 12 12 11 11 11 11 11 11 11 11 11 11 11 11 10 10 10 11 11 11 10 10 10 10 10 10 11 11 11 11 11 11 11 11 11 11 11 10 10 10
12 12 12 12 12 12 11 11 11 11 11 11 11 11 11 11 11 10 10 11 11 11 11 11 11 10 10 10 10 11 11 11 11 11 11 11 11 11 11 11 11 11
12 12 12 12 12 12 12 11 11 11 11 11 11 11 11 11 11 11 10 11 11 11 11 11 11 11 11 10 10 11 11 11 11 11 11 11 11 11 11 11 11 11
12 12 12 12 12 12 12 11 11 11 11 11 11 11 11 11 11 11 11 11 11 11 11 11 11 11 11 11 11 11 11 11 11 11 11 11 11 11 11 11 11 11
12 12 12 12 12 12 12 12 12 12 11 11 11 11 11 11 11 11 11 11 11 11 11 11 11 11 11 11 11 11 11 11 11 11 12 12 12 12 11 11 11 11
13 12 12 12 12 12 12 12 12 12 12 12 12 11 11 12 11 11 11 11 11 11 11 11 11 11 11 11 11 11 11 11 11 11 11 12 12 12 11 11 11 11
13 13 12 12 12 12 12 12 12 12 12 12 12 12 12 12 12 11 11 11 11 11 11 11 11 11 11 11 11 11 11 11 11 11 11 12 12 12 11 11 11 12
13 13 12 12 12 12 12 12 12 12 12 12 12 12 12 12 12 12 11 11 11 11 11 11 11 11 11 11 11 11 11 11 12 12 12 12 12 12 12 12 12 12
13 13 13 13 12 12 12 12 12 12 12 12 12 12 12 12 12 12 12 12 11 11 12 12 12 12 11 11 11 11 12 12 12 12 12 12 12 12 12 12 12 12
13 13 13 13 13 12 12 12 12 12 12 12 12 12 12 12 12 12 12 12 12 12 12 12 12 12 12 12 12 12 12 12 12 12 12 12 12 12 12 12 12 12
14 13 13 13 13 13 13 12 12 12 12 12 12 12 12 12 12 12 12 12 12 12 12 12 12 12 12 12 12 12 12 12 12 12 12 12 12 12 12 12 12 12
14 14 14 13 13 13 13 13 12 12 12 12 12 12 12 13 13 12 13 13 12 12 12 12 12 12 12 12 12 12 12 12 12 12 12 12 12 12 12 12 12 12
14 14 14 14 14 13 13 13 12 12 12 12 12 12 12 13 13 13 13 13 13 12 12 12 12 12 12 12 12 12 12 12 12 12 12 12 12 12 12 12 12 12
14 14 14 14 14 13 13 13 13 12 12 12 12 12 12 13 13 13 13 13 13 13 13 13 13 12 12 12 12 12 13 13 12 12 12 12 12 12 12 12 12 12
15 14 14 14 14 14 13 13 13 13 13 13 13 13 12 13 13 13 13 13 13 13 13 13 13 13 13 13 13 12 13 13 12 12 12 12 12 12 12 12 12 12
14 14 14 14 14 14 14 14 13 13 13 13 13 13 13 13 13 13 13 13 13 13 13 13 13 13 13 13 13 13 13 12 12 12 12 12 13 12 12 12 12 12
15 14 14 14 14 14 14 14 14 14 13 13 13 13 13 13 13 13 13 13 13 13 13 13 14 14 14 14 13 13 13 12 12 12 12 12 12 13 12 12 12 12
15 15 15 14 14 14 14 14 14 14 14 14 14 14 13 13 13 13 13 13 13 13 14 14 14 14 14 14 13 13 13 12 12 12 12 12 12 13 13 12 12 12
15 15 15 15 14 14 14 14 14 14 14 14 14 14 14 13 13 13 13 13 13 13 13 14 14 14 14 14 14 13 12 12 12 12 12 12 13 13 13 12 12 12
16 15 15 15 15 15 14 14 14 14 14 14 14 14 14 14 13 13 13 13 13 13 13 13 13 14 14 14 13 13 12 12 12 12 12 12 13 13 13 13 12 12
16 16 15 15 15 15 15 14 14 14 14 14 14 14 14 14 14 14 14 14 13 13 13 13 13 13 14 14 13 13 12 12 12 12 12 13 13 13 13 13 13 13
16 16 16 15 15 15 15 15 15 14 14 14 14 14 14 14 14 14 14 14 14 13 13 13 13 13 14 14 14 13 12 12 12 12 13 13 13 13 13 13 13 13
16 16 16 15 15 15 15 15 15 15 14 14 14 14 14 14 14 14 14 14 14 14 14 14 13 13 14 14 14 13 13 12 12 12 13 13 13 13 13 13 13 13
16 16 16 16 15 15 15 15 15 15 14 14 14 14 14 14 14 14 14 14 14 14 14 14 14 14 14 14 14 13 13 12 12 13 13 13 13 13 13 13 13 13
16 16 16 16 15 15 15 15 15 14 14 14 14 14 14 14 14 14 14 14 14 14 14 14 14 14 14 14 14 13 13 13 13 13 13 13 13 13 13 13 13 13
16 16 16 16 15 15 15 15 15 14 14 14 14 14 14 14 13 14 14 14 14 14 14 14 14 14 14 14 14 14 13 13 13 13 13 13 13 13 13 13 13 13
Height
3209 3211 3213 3215 3217 3219 3221 3223 3225 3226 3228 3230 3232 3233 3234 3235 3236 3237 3237 3239 3240 3241 3242 3242 3243 3244 3245 3246 3247 3248 3248 3249 3250 3250 3251 3252 3252 3252 3253 3253 3253 3253
3207 3209 3211 3213 3215 3217 3219 3221 3223 3225 3227 3229 3230 3231 3232 3233 3234 3235 3236 3238 3239 3240 3241 3242 3243 3244 3244 3245 3246 3247 3248 3249 3250 3250 3251 3252 3252 3253 3253 3254 3254 3254
3205 3207 3209 3211 3213 3216 3218 3220 3222 3223 3225 3227 3229 3230 3231 3232 3233 3234 3235 3237 3238 3239 3240 3241 3242 3243 3244 3244 3245 3246 3247 3248 3249 3250 3251 3251 3252 3253 3254 3254 3254 3255
3203 3205 3207 3210 3212 3214 3216 3218 3220 3222 3223 3225 3227 3228 3230 3231 3232 3233 3234 3236 3237 3238 3239 3240 3241 3242 3243 3244 3245 3246 3247 3248 3248 3249 3250 3251 3252 3253 3254 3254 3255 3255
3200 3203 3205 3207 3210 3212 3214 3216 3217 3219 3221 3223 3225 3226 3228 3229 3230 3232 3233 3235 3236 3237 3238 3239 3240 3241 3242 3243 3244 3245 3246 3247 3248 3249 3249 3250 3251 3252 3253 3254 3254 3255
3198 3200 3203 3205 3207 3209 3211 3213 3215 3217 3219 3221 3223 3224 3226 3227 3229 3230 3232 3233 3235 3236 3237 3238 3239 3240 3241 3242 3243 3244 3245 3246 3247 3248 3249 3250 3250 3251 3252 3253 3254 3254
3196 3198 3201 3203 3205 3207 3209 3211 3213 3215 3217 3219 3220 3222 3223 3225 3227 3229 3230 3232 3233 3234 3235 3236 3237 3238 3239 3240 3241 3242 3243 3245 3246 3247 3248 3249 3249 3250 3251 3252 3253 3253
3194 3196 3199 3201 3203 3205 3207 3209 3211 3213 3215 3216 3218 3219 3221 3223 3225 3227 3228 3230 3231 3232 3233 3235 3236 3237 3238 3239 3240 3241 3242 3243 3244 3246 3247 3247 3248 3249 3250 3251 3251 3252
3191 3194 3196 3198 3200 3202 3205 3207 3209 3211 3212 3214 3216 3217 3219 3221 3223 3224 3226 3228 3229 3230 3232 3233 3234 3235 3236 3237 3238 3240 3241 3242 3243 3244 3245 3246 3247 3248 3248 3249 3250 3251
3189 3191 3193 3195 3197 3200 3202 3205 3207 3209 3210 3212 3214 3215 3217 3219 3220 3222 3223 3225 3227 3228 3230 3231 3232 3234 3235 3235 3237 3238 3240 3241 3242 3242 3244 3245 3246 3246 3247 3247 3248 3249
3186 3188 3190 3193 3195 3197 3200 3202 3205 3206 3208 3210 3211 3213 3215 3216 3218 3219 3221 3223 3225 3226 3228 3229 3231 3232 3233 3234 3235 3236 3238 3239 3240 3240 3242 3243 3244 3245 3245 3246 3247 3248
3184 3186 3188 3190 3193 3195 3198 3200 3202 3204 3205 3207 3209 3211 3212 3214 3215 3217 3218 3221 3223 3225 3226 3228 3229 3230 3231 3232 3233 3234 3236 3237 3238 3238 3240 3241 3242 3242 3243 3244 3245 3246
3181 3183 3185 3188 3190 3193 3195 3197 3200 3202 3203 3205 3207 3208 3210 3211 3213 3215 3216 3219 3221 3223 3224 3225 3227 3228 3229 3230 3231 3232 3234 3235 3236 3236 3237 3238 3239 3240 3241 3242 3243 3244
3179 3181 3183 3185 3188 3190 3192 3194 3197 3199 3201 3202 3204 3205 3207 3209 3211 3213 3214 3216 3219 3220 3221 3223 3224 3226 3227 3228 3230 3230 3232 3233 3234 3235 3235 3236 3237 3238 3239 3239 3240 3242
3176 3178 3180 3183 3185 3187 3189 3192 3194 3196 3198 3199 3201 3203 3205 3206 3208 3210 3212 3214 3216 3218 3219 3220 3222 3223 3224 3226 3228 3229 3230 3231 3232 3233 3233 3234 3235 3236 3236 3237 3238 3240
3174 3175 3178 3180 3182 3184 3187 3189 3191 3193 3195 3197 3198 3201 3203 3204 3206 3208 3209 3211 3213 3215 3216 3218 3219 3221 3222 3224 3226 3227 3228 3229 3230 3231 3232 3232 3232 3233 3234 3235 3236 3237
3171 3173 3175 3177 3179 3181 3184 3186 3188 3190 3192 3194 3196 3198 3200 3202 3204 3205 3207 3209 3210 3212 3213 3215 3217 3218 3220 3222 3223 3225 3226 3227 3228 3229 3229 3230 3230 3231 3232 3233 3234 3235
3168 3170 3172 3175 3176 3179 3181 3183 3185 3187 3189 3191 3193 3195 3197 3199 3201 3202 3204 3206 3207 3209 3210 3212 3214 3216 3217 3219 3221 3222 3224 3225 3225 3226 3227 3228 3228 3229 3230 3231 3232 3233
3165 3167 3170 3172 3174 3176 3178 3180 3182 3184 3186 3188 3190 3192 3195 3197 3198 3200 3202 3203 3205 3206 3207 3209 3211 3212 3214 3217 3219 3220 3221 3222 3223 3224 3224 3225 3226 3226 3227 3228 3229 3231
3162 3164 3167 3169 3172 3173 3175 3177 3179 3181 3183 3185 3187 3189 3191 3193 3195 3197 3198 3200 3202 3203 3205 3207 3208 3209 3211 3214 3216 3217 3218 3219 3220 3221 3222 3222 3223 3224 3225 3226 3227 3228
3159 3161 3164 3167 3169 3171 3173 3175 3176 3178 3180 3182 3184 3186 3188 3190 3192 3194 3195 3198 3199 3201 3202 3204 3206 3207 3208 3211 3213 3215 3216 3216 3217 3218 3219 3220 3220 3221 3222 3223 3224 3226
3156 3158 3161 3163 3166 3168 3170 3172 3173 3175 3177 3179 3181 3183 3185 3187 3189 3191 3192 3194 3196 3198 3199 3201 3203 3204 3205 3208 3210 3212 3212 3213 3213 3214 3216 3217 3218 3218 3220 3221 3222 3223
3153 3155 3157 3160 3163 3165 3167 3169 3171 3173 3174 3176 3178 3180 3182 3184 3186 3188 3189 3191 3193 3195 3196 3198 3200 3201 3203 3205 3207 3209 3209 3209 3210 3211 3212 3214 3215 3216 3217 3218 3220 3221
3149 3152 3154 3157 3159 3162 3164 3166 3168 3170 3172 3174 3176 3178 3179 3181 3183 3185 3187 3188 3190 3192 3194 3195 3197 3198 3200 3202 3204 3205 3206 3207 3207 3208 3209 3211 3212 3213 3214 3215 3217 3219
3146 3149 3151 3153 3156 3159 3161 3163 3165 3167 3169 3171 3173 3175 3177 3179 3180 3182 3183 3185 3187 3189 3190 3192 3194 3195 3197 3199 3201 3202 3203 3204 3204 3205 3206 3207 3209 3210 3211 3213 3214 3216
3143 3145 3148 3150 3153 3155 3158 3160 3162 3164 3166 3168 3170 3172 3174 3176 3177 3178 3180 3182 3184 3185 3187 3189 3191 3192 3193 3196 3198 3199 3200 3201 3201 3202 3203 3205 3207 3208 3208 3210 3211 3212
Wind_Speed
29 29 28 27 27 26 26 25 25 24 23 21 20 19 19 18 17 16 15 14 13 13 12 12 11 10 9 9 9 8 8 7 5 4 4 3 4 6 7 6 6 6
30 29 29 28 28 27 26 26 25 25 24 22 21 21 21 21 19 19 17 15 14 14 13 13 12 11 11 10 10 9 8 8 7 6 5 4 3 4 6 6 5 5
31 30 30 29 28 27 26 26 26 26 25 23 22 23 22 22 21 20 19 17 16 15 15 14 13 13 12 11 11 10 9 9 9 8 8 6 4 4 5 6 6 5
31 31 30 29 29 27 27 27 27 26 26 25 24 24 24 23 23 22 21 19 18 17 16 15 14 14 13 13 12 11 10 10 10 10 10 8 7 5 5 5 6 6
30 31 30 30 30 29 28 28 28 27 27 26 25 25 25 25 24 23 22 20 19 19 18 17 16 16 15 14 14 13 12 12 11 11 11 10 9 8 7 6 6 7
30 30 30 30 30 30 29 29 28 28 28 27 27 26 27 27 26 25 23 21 20 20 19 19 18 17 16 15 15 14 14 14 13 12 12 12 11 10 9 8 8 8
30 30 30 31 31 31 30 30 29 28 28 28 28 28 28 27 26 27 26 23 22 21 20 20 19 18 17 16 16 15 15 16 15 14 13 14 13 13 12 11 11 10
30 30 30 31 31 31 31 31 30 29 28 28 29 28 28 27 27 27 27 26 24 23 22 21 20 19 19 18 17 16 16 16 16 16 15 15 15 15 15 14 14 13
30 30 30 31 31 31 31 31 30 30 29 29 29 28 28 28 27 27 28 27 26 25 24 22 22 21 20 20 19 17 16 16 17 18 17 17 17 17 17 17 17 16
30 30 31 31 31 32 32 31 30 30 29 29 29 28 27 27 28 28 28 27 27 26 25 24 23 21 21 22 21 19 17 16 17 18 19 19 20 20 20 20 19 18
30 30 31 31 31 31 31 31 30 29 29 28 28 28 27 27 27 29 29 27 27 27 26 25 24 23 23 23 22 20 18 17 18 19 20 21 22 22 22 22 21 20
29 30 30 30 30 30 30 31 30 29 28 28 28 29 29 28 27 28 28 27 26 26 26 25 25 24 24 23 22 21 19 18 19 19 19 21 22 23 24 23 22 22
29 29 29 28 28 29 30 30 30 30 29 28 28 29 29 29 29 27 27 26 25 26 26 26 26 25 24 23 22 21 19 18 19 19 19 20 22 24 24 24 23 22
28 28 29 28 28 29 30 30 31 31 30 29 29 29 29 30 29 27 26 25 25 25 26 26 26 25 24 23 22 21 20 18 18 19 19 19 21 23 24 25 23 22
28 29 29 29 28 29 29 30 30 31 32 31 30 29 29 28 28 27 26 25 25 25 26 26 25 25 24 23 21 21 20 19 18 18 19 19 20 22 24 25 24 22
29 29 29 30 29 29 29 30 30 30 32 32 31 29 29 28 28 28 26 25 25 25 25 25 25 24 23 22 21 20 20 19 19 19 19 19 20 21 23 24 23 22
30 29 29 29 29 29 30 30 30 30 31 32 32 30 30 30 30 29 27 25 25 25 25 25 24 23 22 21 20 20 20 20 20 20 19 20 20 20 21 23 23 22
30 30 29 29 29 29 29 30 30 30 30 31 31 31 31 31 31 30 29 28 27 26 26 25 24 23 22 21 20 20 20 21 21 21 21 21 20 20 20 22 23 22
30 30 29 28 28 27 28 30 31 31 30 30 30 30 30 31 32 31 30 30 29 29 27 26 25 25 23 21 20 21 21 22 23 23 23 22 22 21 20 21 23 23
31 30 30 28 27 27 27 29 31 32 30 30 30 30 30 31 32 32 31 31 30 30 29 27 27 26 24 22 21 21 22 23 24 24 24 24 24 22 21 21 23 23
33 31 30 29 28 28 28 28 30 31 31 31 31 31 31 31 32 32 31 30 30 30 30 28 28 27 25 23 22 22 23 25 26 26 26 26 25 24 22 21 22 23
34 32 31 30 30 30 29 28 29 31 31 31 31 31 31 31 31 32 31 31 30 30 30 29 28 28 27 24 22 22 24 26 28 28 27 27 26 25 23 22 22 23
37 34 32 31 31 31 30 29 29 30 31 32 32 32 32 32 31 31 32 31 31 31 31 30 29 29 28 24 22 23 25 27 28 28 28 27 27 26 25 24 24 24
39 37 34 32 32 33 32 31 30 29 30 31 32 32 31 31 31 31 32 32 31 31 30 30 29 28 27 25 23 24 25 27 28 28 28 28 27 27 27 26 25 25
41 39 36 33 32 32 33 33 32 30 30 30 30 31 31 31 31 31 32 32 32 31 30 30 29 28 27 25 24 25 25 27 28 29 29 28 26 27 27 27 27 27
43 40 37 35 33 32 33 34 34 32 31 30 30 31 32 31 31 31 31 31 32 32 31 31 30 29 28 26 26 26 26 27 28 29 29 28 26 26 26 27 27 28
Wind_Direction
219 218 218 219 219 221 221 220 221 223 224 223 222 220 219 217 216 215 215 214 212 207 206 207 206 202 199 196 192 193 196 194 191 187 173 147 123 113 110 108 109 111
221 220 219 219 219 220 222 222 222 224 225 224 223 222 221 218 217 217 216 214 213 212 212 213 214 212 207 204 203 200 200 200 201 203 200 186 158 136 128 124 126 130
223 222 221 221 221 221 222 223 224 225 226 225 223 223 222 220 219 219 218 214 213 214 215 216 219 222 219 215 212 208 207 207 208 211 212 206 193 172 155 148 148 152
224 224 222 222 222 221 222 224 225 226 227 226 225 224 223 221 220 220 220 217 214 215 217 218 220 225 227 226 221 216 216 216 215 218 219 216 212 202 190 179 171 173
224 225 224 223 223 222 221 223 225 226 228 228 227 226 225 223 221 221 222 221 219 218 220 221 222 225 230 233 231 225 224 224 223 225 227 226 225 221 215 210 200 192
224 225 224 223 223 223 222 223 225 226 228 229 229 228 227 225 223 223 224 223 223 224 223 224 225 228 232 236 236 231 227 229 228 229 231 231 231 230 226 224 223 217
224 224 225 225 224 223 223 223 226 227 228 230 230 229 229 227 224 225 226 224 224 226 227 227 227 230 234 237 239 238 234 234 234 233 234 234 234 234 232 231 231 230
225 224 224 225 225 224 224 224 226 227 228 229 231 231 230 229 226 226 227 226 225 226 228 229 230 231 236 240 242 244 243 241 240 239 237 238 238 238 238 237 237 237
224 224 224 225 225 224 224 224 225 227 228 229 231 232 231 230 228 227 228 227 227 228 228 230 232 233 237 243 245 247 248 246 246 244 241 239 240 241 241 241 241 242
223 223 224 224 225 224 223 223 224 227 229 229 231 232 231 230 229 228 228 228 228 230 230 231 232 234 238 244 247 248 250 250 249 248 244 241 240 241 242 242 242 243
221 222 223 224 225 225 225 224 224 225 227 229 230 231 231 230 230 229 229 228 228 231 232 233 234 236 238 244 248 249 250 249 249 248 245 242 241 241 242 242 243 243
220 222 223 224 224 225 226 225 224 224 226 227 229 231 232 232 232 231 231 229 228 231 234 234 235 237 238 242 246 248 248 248 248 248 246 243 242 242 243 243 243 243
220 221 223 223 224 225 226 226 225 224 224 226 227 230 232 232 232 233 233 230 228 230 234 235 235 237 238 239 244 247 248 247 249 250 249 246 244 243 244 245 244 244
220 221 222 223 223 224 226 227 226 225 225 224 225 227 230 232 231 232 232 231 229 229 233 235 235 237 238 238 241 246 248 248 248 252 253 251 248 246 245 246 246 246
221 221 221 222 222 223 226 228 228 227 227 226 224 224 227 230 230 230 229 229 229 229 232 235 236 236 237 238 240 244 247 249 248 250 254 254 252 248 246 246 246 246
223 222 221 222 222 222 224 228 229 229 229 230 228 225 226 229 230 230 228 228 229 229 231 235 236 236 236 237 239 242 245 248 248 248 251 254 253 249 246 246 246 245
226 224 222 222 223 223 223 226 229 230 231 232 231 227 227 230 231 231 230 230 231 231 232 235 237 237 236 236 239 242 243 245 248 249 249 252 254 250 245 244 245 244
230 227 224 223 224 224 223 224 227 229 230 232 232 230 228 230 232 232 232 232 233 234 234 234 236 238 236 235 238 242 244 245 246 248 249 251 252 251 245 242 242 241
232 231 227 224 224 225 224 223 225 227 228 230 231 231 229 230 232 233 232 233 234 235 235 235 237 237 235 234 237 241 244 246 246 247 249 251 251 250 246 241 239 239
232 232 230 226 224 225 225 223 224 226 227 227 229 230 229 229 231 233 233 233 234 236 236 236 238 238 235 233 235 239 243 245 246 246 247 249 250 250 246 242 239 237
230 231 229 226 223 224 226 225 224 225 226 226 227 228 228 228 230 233 234 233 234 236 236 235 237 238 236 231 232 237 241 243 245 245 245 246 248 249 248 244 240 237
229 229 228 225 223 223 226 227 226 225 225 225 226 227 228 228 229 231 233 232 233 236 237 235 235 237 236 232 229 233 239 241 243 244 243 244 245 247 247 245 241 236
227 228 228 225 223 222 224 227 228 227 226 225 225 227 228 228 228 229 232 232 232 234 236 237 236 236 236 233 229 229 234 239 242 243 243 242 243 244 245 245 242 236
226 227 227 226 224 222 223 226 228 229 229 227 226 226 228 229 229 230 231 233 233 233 235 237 238 237 235 232 228 226 230 236 240 242 242 241 241 242 243 243 242 238
225 227 228 227 225 224 223 225 227 229 231 230 228 227 228 229 229 230 231 232 233 233 234 235 237 237 234 229 227 226 227 232 237 240 242 242 241 242 243 243 243 240
224 227 228 229 227 226 225 225 226 228 230 232 230 228 227 228 229 230 230 231 233 234 234 233 233 236 235 229 226 226 227 231 235 239 242 243 243 243 244 244 243 243